DW8241 Weather Reports


Display with metric or nautical units.
time (UTC)temp
F
wind
direction
speed
MPH
gust
MPH
rain 1hr
in
rain 24hr
in
rain mn
in
humidity
%
barometer
mb
20260510203059 53 343 7.0 15.0 0.00 0.00 0.00 46 1024.0
20260510201558 51 296 6.0 17.0 0.00 0.00 0.00 44 1024.0
20260510200056 51 3 6.0 16.0 0.00 0.00 0.00 46 1023.9
20260510194602 51 344 9.0 17.0 0.00 0.00 0.00 42 1024.1
20260510193058 51 11 3.0 13.0 0.00 0.00 0.00 45 1024.2
20260510191556 50 301 6.0 15.0 0.00 0.00 0.00 47 1024.1
20260510190100 50 66 6.0 12.0 0.00 0.00 0.00 49 1024.3
20260510184551 50 53 0.0 13.0 0.00 0.00 0.00 48 1024.4
20260510183050 49 325 5.0 15.0 0.00 0.00 0.00 48 1024.5
20260510181547 48 310 8.0 14.0 0.00 0.00 0.00 47 1024.5
20260510180059 48 339 3.0 15.0 0.00 0.00 0.00 49 1024.6
20260510174541 48 340 0.0 15.0 0.00 0.00 0.00 51 1024.6
20260510173047 48 8 7.0 16.0 0.00 0.00 0.00 52 1024.5
20260510171538 47 27 9.0 17.0 0.00 0.00 0.00 51 1024.6
20260510170036 47 344 9.0 14.0 0.00 0.00 0.00 50 1024.7
20260510164537 46 30 8.0 16.0 0.00 0.00 0.00 52 1024.6
20260510163041 46 316 6.0 16.0 0.00 0.00 0.00 55 1024.7
20260510161534 45 19 6.0 15.0 0.00 0.00 0.00 55 1024.7
20260510160028 45 34 6.0 16.0 0.00 0.00 0.00 53 1024.7
20260510154529 44 311 7.0 16.0 0.00 0.00 0.00 54 1024.7
20260510153025 44 65 4.0 14.0 0.00 0.00 0.00 56 1024.6
20260510151524 43 2 9.0 17.0 0.00 0.00 0.00 57 1024.6
20260510150032 43 316 0.0 9.0 0.00 0.00 0.00 59 1024.7
20260510144529 42 320 5.0 12.0 0.00 0.00 0.00 60 1024.6
20260510143032 42 51 0.0 10.0 0.00 0.00 0.00 65 1024.5
20260510141519 41 38 4.0 12.0 0.00 0.00 0.00 67 1024.5
20260510140018 41 317 6.0 12.0 0.00 0.00 0.00 69 1024.4
20260510134517 40 32 3.0 11.0 0.00 0.00 0.00 71 1024.3
20260510133015 39 328 0.0 8.0 0.00 0.00 0.00 73 1024.2
20260510131522 39 15 0.0 14.0 0.00 0.00 0.00 75 1024.0
20260510130013 38 47 3.0 10.0 0.00 0.00 0.00 77 1024.0
20260510124519 37 356 0.0 5.0 0.00 0.00 0.00 77 1023.8
20260510123008 35 27 0.0 0.0 0.00 0.00 0.00 79 1023.6
20260510121514 34 353 1.0 5.0 0.00 0.00 0.00 82 1023.4
20260510120009 32 345 0.0 0.0 0.00 0.00 0.00 83 1023.3
20260510114503 31 16 0.0 0.0 0.00 0.00 0.00 85 1023.1
20260510113003 30 16 0.0 0.0 0.00 0.00 0.00 85 1022.9
20260510111558 29 25 0.0 0.0 0.00 0.00 0.00 83 1022.7
20260510110056 29 352 0.0 0.0 0.00 0.00 0.00 84 1022.4
20260510104554 29 352 0.0 0.0 0.00 0.00 0.00 83 1022.2
20260510103050 30 352 0.0 0.0 0.00 0.00 0.00 81 1021.9
20260510101547 31 25 0.0 0.0 0.00 0.00 0.00 81 1021.7
20260510100105 31 29 0.0 0.0 0.00 0.00 0.00 82 1021.7
20260510094554 32 29 0.0 0.0 0.00 0.00 0.00 81 1021.4
20260510093038 33 29 0.0 0.0 0.00 0.00 0.00 79 1021.1
20260510091534 34 33 0.0 0.0 0.00 0.00 0.00 77 1021.0
20260510090040 36 35 0.0 0.0 0.00 0.00 0.00 76 1020.8
20260510084527 38 44 0.0 0.0 0.00 0.00 0.00 75 1020.7
20260510083028 39 41 0.0 0.0 0.00 0.00 0.00 74 1020.6
20260510081519 39 46 0.0 7.0 0.00 0.00 0.00 73 1020.4
20260510080025 40 41 0.0 12.0 0.00 0.00 0.00 71 1020.3
20260510074513 41 16 6.0 11.0 0.00 0.00 0.00 70 1020.1
20260510073009 41 100 0.0 11.0 0.00 0.00 0.00 69 1019.9
20260510071508 42 57 0.0 0.0 0.00 0.00 0.00 70 1019.7
20260510070005 42 41 0.0 0.0 0.00 0.00 0.00 71 1019.7
20260510064601 43 52 2.0 10.0 0.00 0.00 0.00 69 1019.3
20260510063058 44 51 7.0 12.0 0.00 0.00 0.00 65 1019.0
20260510061556 44 37 4.0 9.0 0.00 0.00 0.00 63 1018.8
20260510060053 44 4 4.0 8.0 0.00 0.00 0.00 62 1018.5
20260510054549 44 345 1.0 3.0 0.00 0.00 0.00 63 1018.4
20260510053046 43 343 0.0 0.0 0.00 0.00 0.00 64 1018.2
20260510051547 44 40 0.0 1.0 0.00 0.00 0.00 63 1017.9
20260510050042 44 41 0.0 3.0 0.00 0.00 0.00 61 1017.6
20260510044539 44 41 0.0 1.0 0.00 0.00 0.00 60 1017.5
20260510043041 44 41 0.0 2.0 0.00 0.00 0.00 60 1017.4
20260510041536 44 42 1.0 2.0 0.00 0.00 0.00 60 1017.2
20260510040034 44 49 0.0 2.0 0.00 0.00 0.00 60 1017.0
20260510034540 44 53 0.0 1.0 0.00 0.02 0.00 61 1016.7
20260510033031 45 53 0.0 3.0 0.00 0.02 0.00 59 1016.6
20260510031529 45 83 0.0 0.0 0.00 0.02 0.00 57 1016.4
20260510030028 47 83 1.0 6.0 0.00 0.02 0.00 56 1016.3
20260510024528 47 44 2.0 6.0 0.00 0.02 0.00 53 1016.2
20260510023026 48 61 2.0 10.0 0.00 0.02 0.00 53 1016.2
20260510021523 48 49 3.0 10.0 0.00 0.02 0.00 52 1015.8
20260510020021 49 40 3.0 7.0 0.00 0.02 0.00 52 1015.4
20260510014518 49 41 1.0 4.0 0.00 0.02 0.00 50 1015.1
20260510013017 50 20 2.0 6.0 0.00 0.02 0.00 49 1015.0
20260510011532 51 39 3.0 8.0 0.00 0.02 0.00 47 1014.7
20260510010013 52 360 2.0 4.0 0.00 0.02 0.00 46 1014.5
20260510004513 53 6 4.0 10.0 0.00 0.02 0.00 44 1014.4
20260510003012 53 31 3.0 11.0 0.00 0.02 0.00 44 1014.3
20260510001511 53 342 3.0 12.0 0.00 0.02 0.00 43 1014.4
20260510000014 53 345 4.0 8.0 0.00 0.02 0.00 43 1014.3
20260509234509 53 346 6.0 9.0 0.00 0.02 0.00 43 1014.2
20260509233012 53 23 3.0 10.0 0.00 0.02 0.00 43 1014.2
20260509231511 53 324 4.0 12.0 0.00 0.02 0.00 43 1014.1
20260509230007 53 333 5.0 12.0 0.00 0.02 0.00 43 1014.0
20260509224508 54 338 3.0 11.0 0.00 0.02 0.00 43 1013.9
20260509223006 54 357 4.0 14.0 0.00 0.02 0.00 43 1013.9
20260509221504 55 354 5.0 12.0 0.00 0.02 0.00 42 1013.9
20260509220004 54 323 6.0 12.0 0.00 0.02 0.00 43 1013.8
20260509214503 55 1 5.0 11.0 0.00 0.02 0.00 43 1013.8
20260509213103 55 16 5.0 18.0 0.00 0.02 0.00 43 1013.7
20260509211501 54 34 9.0 15.0 0.00 0.02 0.00 42 1013.9
20260509210108 55 75 8.0 13.0 0.00 0.02 0.00 43 1013.8
20260509204602 55 352 6.0 16.0 0.00 0.02 0.00 45 1013.7